MIDAS 4 DEB, 2009

Orbit data source: Space-Track

MIDAS 4 DEB, 2009 is space debris in LEO originally from a launch on Sat, 21 Oct 1961 UTC launched from the Air Force Western Test Range (AFWTR). Debris objects in space refer to the collection of defunct objects orbiting the Earth. Examples of debris include non-operational satellites, rocket bodies, and fragments generated from explosions, collisions, or faulty payload assembly.

Loading next visibility...
Identifier
2009, 1961-028E
Orbit
LEO
Country
Flag of USUS
Related business
Manufacturer
Unknown
Mission
Spacecraft
Bus & Motor
Unknown
Mass
~10 kg wet, ~10 kg dry
Launch date (UTC)
1961-10-21 (64 years ago)
Launch vehicle
Unknown
Launch site
Air Force Western Test Range (AFWTR)
Object type
Payload
Rocket body
Debris
Shape & HBR
Unknown shape, 1.1 m
Radar Cross Section
Medium (>0.1 m² and <1 m²)

Expand to show TLE details & history
Last TLE update: 22 hours ago

TLE from 22 hours ago
0 MIDAS 4 DEB
1  2009U 61028E   26070.32347813 -.00000002  00000-0  61688-3 0  9999
2  2009  95.8275 209.3876 0122142 353.5398   6.3880  8.68991184381508
Epoch: 2026-03-11T07:45Z
TLE epoch observation values (Epoch: 2026-03-11T07:45:48.510Z)
Latitude
-0.00001°
Longitude
-76.05389°
Altitude
3,496.387 km
Speed
6.393 km/s
True Right ascension
13h 57m 33s
True Declination
0° 00' 00"
Sunlit
Object was in full shadow at epoch
Visualization orbit readout
Latitude
Unknown
Longitude
Unknown
Altitude
Unknown
Speed
Unknown
Apparent Right ascension
Unknown
Apparent Declination
Unknown
Sunlit
N/A
Visualization observer readout
Local Sidereal Time
09:37:47
Azimuth
Unknown
Elevation
Unknown
Doppler factor
Unknown
Orbital elements
Apogee altitude
3,735.441 km
Perigee altitude
3,491.363 km
Semi-major axis
9,991.539 km
Eccentricity
0.01221
Inclination
95.8275°
RAAN
209.3876°
Arg. of periapsis
353.5398°
True anomaly
6.54612°
Mean anomaly
6.388°
Eccentric anomaly
6.46682°
Mean motion
2.17317 °/min
Orbital period
165.66 mins
BSTAR
0.00061688
Loading maneuver chart data...
Computing Atmospheric mass density...
Loading historical data...
Loading historical data...
Loading historical data...
Loading historical data...
Loading historical data...
Loading historical data...
Loading historical data...

Documentation

Showing up to 5 results
|